Location: Morlupo
(42.1333°N, 12.5000°E)
Time: 16:04:02
(UTC+00:00)

USA 238 DEB - Pass Details

Date: 18 September 2020
Orbit: 1006 x 1206 km, 63.4° (Epoch: 15 October)

Event Time Altitude Azimuth Distance (km) Brightness Sun altitude
Rises 19:34:06 0° 324° (NW) 3,958 7.7 -25.8°
Reaches altitude 10° 19:36:45 10° 324° (NW) 3,024 6.9 -26.2°
Maximum altitude 19:44:02 90° 44° (NE) 1,176 3.8 -27.4°
Enters shadow 19:45:39 60° 145° (SE) 1,335 3.8 -27.6°
